When you browse on this site, cookies collect data to enhance your experience and personalize the content and advertising you see.
Visit our Privacy Policy to learn more. By continuing to use the site, you agree to this use of cookies and data.
  • In United Kingdom
  • List of Countries
  • For 7 days
  • Water Temperature
  • Weather Map
  • Weather Widgets
  • user-avatar
    Login

    Hourly Weather Wigston Magna

    Today, 17 September, Tuesday

    Time Temperature Precipitation Wind Pressure Humidity
    00:00 +10°C° 0 mm 2 mps 759 mmHg 88%
    01:00 +9°C° 0 mm 2 mps 759 mmHg 89%
    02:00 +9°C° 0 mm 3 mps 759 mmHg 90%
    03:00 +9°C° 0 mm 3 mps 759 mmHg 91%
    04:00 +9°C° 0 mm 3 mps 759 mmHg 91%
    05:00 +8°C° 0 mm 3 mps 760 mmHg 91%
    06:00 +8°C° 0 mm 2 mps 760 mmHg 92%
    07:00 +10°C° 0 mm 3 mps 760 mmHg 85%
    08:00 +11°C° 0 mm 3 mps 760 mmHg 78%
    09:00 +13°C° 0 mm 4 mps 761 mmHg 70%
    10:00 +14°C° 0 mm 4 mps 761 mmHg 66%
    11:00 +16°C° 0 mm 3 mps 761 mmHg 63%
    12:00 +17°C° 0 mm 3 mps 761 mmHg 59%
    13:00 +17°C° 0 mm 3 mps 761 mmHg 58%
    14:00 +17°C° 0 mm 3 mps 761 mmHg 57%
    15:00 +17°C° 0 mm 3 mps 761 mmHg 56%
    16:00 +16°C° 0 mm 3 mps 761 mmHg 60%
    17:00 +14°C° 0 mm 3 mps 762 mmHg 64%
    18:00 +13°C° 0 mm 3 mps 762 mmHg 69%
    19:00 +12°C° 0 mm 3 mps 762 mmHg 71%
    20:00 +10°C° 0 mm 2 mps 763 mmHg 74%
    21:00 +9°C° 0 mm 2 mps 763 mmHg 76%
    22:00 +9°C° 0 mm 2 mps 763 mmHg 77%
    23:00 +9°C° 0 mm 1 mps 763 mmHg 77%

    Tomorrow, 18 September, Wednesday

    Time Temperature Precipitation Wind Pressure Humidity
    00:00 +9°C° 0 mm 1 mps 763 mmHg 78%
    01:00 +9°C° 0 mm 1 mps 763 mmHg 79%
    02:00 +9°C° 0 mm 1 mps 763 mmHg 80%
    03:00 +7°C° 0 mm 0 mps 763 mmHg 80%
    04:00 +7°C° 0 mm 0 mps 764 mmHg 80%
    05:00 +7°C° 0 mm 0 mps 764 mmHg 81%
    06:00 +7°C° 0 mm 0 mps 764 mmHg 81%
    07:00 +9°C° 0 mm 0 mps 764 mmHg 74%
    08:00 +10°C° 0 mm 0 mps 764 mmHg 68%
    09:00 +13°C° 0 mm 1 mps 764 mmHg 62%
    10:00 +14°C° 0 mm 1 mps 764 mmHg 59%
    11:00 +15°C° 0 mm 1 mps 764 mmHg 56%
    12:00 +18°C° 0 mm 1 mps 764 mmHg 53%
    13:00 +17°C° 0 mm 2 mps 764 mmHg 53%
    14:00 +18°C° 0 mm 2 mps 764 mmHg 53%
    15:00 +18°C° 0 mm 2 mps 764 mmHg 54%
    16:00 +17°C° 0 mm 2 mps 763 mmHg 60%
    17:00 +16°C° 0 mm 2 mps 763 mmHg 67%
    18:00 +15°C° 0 mm 2 mps 763 mmHg 73%
    19:00 +14°C° 0 mm 2 mps 763 mmHg 75%
    20:00 +14°C° 0 mm 2 mps 764 mmHg 78%
    21:00 +13°C° 0 mm 2 mps 764 mmHg 80%
    22:00 +12°C° 0 mm 1 mps 764 mmHg 81%
    23:00 +12°C° 0 mm 1 mps 764 mmHg 82%

    Day after tomorrow, 19 September, Thursday

    Time Temperature Precipitation Wind Pressure Humidity
    00:00 +12°C° 0 mm 1 mps 764 mmHg 82%
    01:00 +12°C° 0 mm 1 mps 764 mmHg 84%
    02:00 +11°C° 0 mm 1 mps 764 mmHg 86%
    03:00 +11°C° 0 mm 1 mps 764 mmHg 88%
    04:00 +11°C° 0 mm 1 mps 764 mmHg 88%
    05:00 +11°C° 0 mm 1 mps 764 mmHg 89%
    06:00 +10°C° 0 mm 0 mps 764 mmHg 90%
    07:00 +11°C° 0 mm 0 mps 765 mmHg 84%
    08:00 +13°C° 0 mm 0 mps 765 mmHg 79%
    09:00 +15°C° 0 mm 0 mps 765 mmHg 73%
    10:00 +16°C° 0 mm 0 mps 765 mmHg 69%
    11:00 +18°C° 0 mm 0 mps 765 mmHg 64%
    12:00 +19°C° 0 mm 0 mps 765 mmHg 60%
    13:00 +19°C° 0 mm 0 mps 764 mmHg 58%
    14:00 +20°C° 0 mm 0 mps 764 mmHg 57%
    15:00 +20°C° 0 mm 0 mps 764 mmHg 55%
    16:00 +19°C° 0 mm 0 mps 764 mmHg 60%
    17:00 +18°C° 0 mm 0 mps 764 mmHg 65%
    18:00 +16°C° 0 mm 0 mps 764 mmHg 69%
    19:00 +18°C° 0 mm 1 mps 764 mmHg 73%
    20:00 +16°C° 0 mm 1 mps 764 mmHg 76%
    21:00 +15°C° 0 mm 1 mps 764 mmHg 79%
    22:00 +15°C° 0 mm 1 mps 764 mmHg 81%
    23:00 +14°C° 0 mm 2 mps 764 mmHg 83%

    20 September, Friday

    Time Temperature Precipitation Wind Pressure Humidity
    00:00 +14°C° 0 mm 2 mps 763 mmHg 85%
    01:00 +13°C° 0 mm 2 mps 763 mmHg 85%
    02:00 +13°C° 0 mm 2 mps 763 mmHg 86%
    03:00 +12°C° 0 mm 2 mps 763 mmHg 87%
    04:00 +12°C° 0 mm 2 mps 763 mmHg 88%
    05:00 +12°C° 0 mm 2 mps 762 mmHg 90%
    06:00 +12°C° 0 mm 2 mps 762 mmHg 91%
    07:00 +13°C° 0 mm 2 mps 762 mmHg 85%
    08:00 +14°C° 0 mm 3 mps 762 mmHg 80%
    09:00 +16°C° 0 mm 3 mps 762 mmHg 74%
    10:00 +17°C° 0 mm 4 mps 762 mmHg 69%
    11:00 +19°C° 0 mm 4 mps 761 mmHg 64%
    12:00 +20°C° 0 mm 4 mps 761 mmHg 59%
    13:00 +20°C° 0 mm 5 mps 760 mmHg 56%
    14:00 +20°C° 0 mm 5 mps 759 mmHg 54%
    15:00 +21°C° 0 mm 5 mps 759 mmHg 52%
    16:00 +19°C° 0 mm 5 mps 758 mmHg 56%
    17:00 +17°C° 0 mm 5 mps 758 mmHg 59%
    18:00 +15°C° 0 mm 4 mps 757 mmHg 63%
    19:00 +14°C° 0 mm 5 mps 757 mmHg 66%
    20:00 +13°C° 0 mm 5 mps 757 mmHg 69%
    21:00 +12°C° 0 mm 5 mps 757 mmHg 72%
    22:00 +12°C° 0 mm 5 mps 756 mmHg 73%
    23:00 +12°C° 0 mm 5 mps 756 mmHg 75%

    21 September, Saturday

    Time Temperature Precipitation Wind Pressure Humidity
    00:00 +12°C° 0 mm 5 mps 755 mmHg 77%
    01:00 +12°C° 0 mm 5 mps 755 mmHg 76%
    02:00 +12°C° 0 mm 4 mps 754 mmHg 75%
    03:00 +12°C° 0 mm 4 mps 754 mmHg 74%
    04:00 +11°C° 0 mm 4 mps 753 mmHg 73%
    05:00 +11°C° 0 mm 4 mps 753 mmHg 72%
    06:00 +11°C° 0 mm 4 mps 752 mmHg 71%
    07:00 +12°C° 0 mm 5 mps 752 mmHg 68%
    08:00 +13°C° 0 mm 5 mps 752 mmHg 64%
    09:00 +15°C° 0 mm 5 mps 751 mmHg 61%
    10:00 +16°C° 0 mm 6 mps 751 mmHg 57%
    11:00 +19°C° 0 mm 6 mps 750 mmHg 53%
    12:00 +21°C° 0 mm 6 mps 750 mmHg 49%
    13:00 +21°C° 0 mm 6 mps 749 mmHg 49%
    14:00 +22°C° 0 mm 6 mps 749 mmHg 49%
    15:00 +22°C° 0 mm 6 mps 748 mmHg 50%
    16:00 +21°C° 0 mm 5 mps 748 mmHg 54%
    17:00 +20°C° 0 mm 5 mps 747 mmHg 58%
    18:00 +19°C° 0 mm 5 mps 747 mmHg 63%
    19:00 +19°C° 0.1 mm 5 mps 747 mmHg 66%
    20:00 +19°C° 0.1 mm 5 mps 747 mmHg 69%
    21:00 +19°C° 0.1 mm 5 mps 747 mmHg 72%
    22:00 +19°C° 0.2 mm 5 mps 746 mmHg 77%
    23:00 +19°C° 0.2 mm 5 mps 746 mmHg 82%

    22 September, Sunday

    Time Temperature Precipitation Wind Pressure Humidity
    00:00 +19°C° 0.2 mm 5 mps 746 mmHg 88%
    01:00 +17°C° 0 mm 5 mps 746 mmHg 89%
    02:00 +17°C° 0 mm 5 mps 746 mmHg 90%
    03:00 +16°C° 0 mm 5 mps 746 mmHg 91%
    04:00 +16°C° 0 mm 5 mps 746 mmHg 91%
    05:00 +16°C° 0 mm 5 mps 746 mmHg 91%
    06:00 +15°C° 0 mm 5 mps 746 mmHg 91%
    07:00 +16°C° 0 mm 5 mps 747 mmHg 86%
    08:00 +16°C° 0 mm 5 mps 747 mmHg 81%
    09:00 +17°C° 0 mm 5 mps 747 mmHg 75%
    10:00 +17°C° 0 mm 5 mps 747 mmHg 72%
    11:00 +19°C° 0 mm 6 mps 747 mmHg 68%
    12:00 +19°C° 0 mm 6 mps 747 mmHg 64%
    13:00 +19°C° 0.5 mm 6 mps 747 mmHg 69%
    14:00 +17°C° 0.5 mm 6 mps 747 mmHg 74%
    15:00 +16°C° 0.5 mm 6 mps 747 mmHg 79%
    16:00 +15°C° 0.2 mm 5 mps 747 mmHg 79%
    17:00 +15°C° 0.2 mm 5 mps 747 mmHg 79%
    18:00 +14°C° 0.2 mm 4 mps 748 mmHg 80%
    19:00 +14°C° 0 mm 5 mps 748 mmHg 81%
    20:00 +13°C° 0 mm 5 mps 749 mmHg 82%
    21:00 +13°C° 0 mm 6 mps 750 mmHg 84%
    22:00 +11°C° 0 mm 6 mps 750 mmHg 84%
    23:00 +11°C° 0 mm 6 mps 751 mmHg 83%
    Show more